Location: Newark
(55.2210°S, 154.7030°W)
Time: 12:43:35
(UTC+00:00)

Envisat - Visible Passes

Search period start: 08 March 2021 00:00
Search period end: 18 March 2021 00:00
Orbit: 764 x 766 km, 98.1° (Epoch: 07 March)

Date Brightness Start Highest point End Pass type
(mag) Time Alt. Az. Time Alt. Az. Time Alt. Az.
08 Mar 5.9 06:01:12 10° S 06:05:02 21° SW 06:08:51 10° W visible
08 Mar 6.2 12:29:33 10° ESE 12:31:31 12° SE 12:33:28 10° SSE visible
08 Mar 4.2 14:04:30 10° NE 14:09:23 46° ESE 14:14:19 10° S visible
09 Mar 5.2 13:28:35 10° ENE 13:32:51 27° ESE 13:37:08 10° S visible
09 Mar 3.0 15:06:24 10° N 15:11:31 67° WNW 15:16:41 10° SSW visible
10 Mar 6.1 06:27:08 10° SSW 06:30:05 15° SW 06:33:00 10° W visible
10 Mar 5.9 12:53:16 10° E 12:56:29 17° SE 12:59:42 10° S visible
10 Mar 3.4 14:29:34 10° NNE 14:34:40 69° ESE 14:39:50 10° SSW visible
11 Mar 5.6 05:49:37 10° S 05:53:45 25° SW 05:57:51 10° WNW visible
11 Mar 6.4 12:19:16 10° SE 12:20:16 11° SE 12:21:17 10° SSE visible
11 Mar 4.5 13:53:17 10° NE 13:58:01 39° ESE 14:02:48 10° S visible
12 Mar 6.4 06:53:36 10° SSW 06:55:02 11° SW 06:56:27 10° WSW visible
12 Mar 5.5 13:17:32 10° ENE 13:21:32 23° SE 13:25:34 10° S visible
12 Mar 3.0 14:54:55 10° NNE 15:00:03 80° WNW 15:05:16 10° SSW visible
13 Mar 6.0 06:15:27 10° S 06:18:48 18° SW 06:22:09 10° W visible
13 Mar 6.1 12:42:27 10° E 12:45:13 15° SE 12:47:59 10° SSE visible
13 Mar 3.7 14:18:15 10° NE 14:23:16 58° ESE 14:28:21 10° S visible
14 Mar 5.3 05:38:03 10° S 05:42:25 29° WSW 05:46:46 10° WNW visible
14 Mar 4.8 13:42:07 10° ENE 13:46:40 33° ESE 13:51:16 10° S visible
14 Mar 3.2 15:20:32 10° N 15:25:32 52° W 15:30:36 10° SSW visible
15 Mar 6.2 06:41:35 10° SSW 06:43:47 13° SW 06:46:00 10° WSW visible
15 Mar 5.6 13:06:32 10° E 13:10:14 20° SE 13:13:57 10° S visible
15 Mar 3.1 14:43:28 10° NNE 14:48:37 86° ESE 14:53:49 10° SSW visible
16 Mar 5.9 06:03:48 10° S 06:07:32 20° SW 06:11:14 10° W visible
16 Mar 6.2 12:31:46 10° ESE 12:33:58 13° SE 12:36:10 10° SSE visible
16 Mar 4.1 14:06:58 10° NE 14:11:53 48° ESE 14:16:52 10° S visible
17 Mar 5.0 05:26:30 10° S 05:31:05 33° WSW 05:35:39 10° WNW visible
17 Mar 5.1 13:30:59 10° ENE 13:35:20 29° ESE 13:39:43 10° S visible
17 Mar 3.0 15:08:58 10° N 15:14:04 63° WNW 15:19:12 10° SSW visible
